Regional Weather Roundup
Issued by NWS State College, PA

Home | Current Version | Previous Version | Text Only | Print | Product List | Glossary On
Versions: 1 2 3 4 5 6 7 8 9 10 11 12 13 14 15 16 17 18 19 20 21 22 23 24 25 26 27 28 29 30 31 32 33 34 35 36 37 38 39 40 41 42 43 44 45 46 47 48 49 50
000
ASUS41 KCTP 260910
RWRCTP

REGIONAL WEATHER ROUNDUP
NATIONAL WEATHER SERVICE STATE COLLEGE PA
500 AM EDT SUN APR 26 2015

Note: "fair" indicates few or no clouds below 12,000 feet with no
significant weather and/or obstructions to visibility.

* = STATION THAT DOES NOT REPORT PRECIPITATION /E.G. RAIN...SNOW...ETC/
    THUNDER OR FOG.

PAZ002>004-007>009-013>016-020>023-029>032-261000-
WESTERN PENNSYLVANIA

CITY           SKY/WX    TMP DP  RH WIND       PRES   REMARKS
ERIE           CLEAR     34  26  72 CALM      29.78R
MEADVILLE      CLEAR     33  24  69 NE6       29.74S
FRANKLIN*      CLEAR     32  21  64 N8        29.74S
NEW CASTLE     FAIR      38  28  67 CALM      29.74R
BEAVER COUNTY  NOT AVBL
BUTLER*        MOCLDY    39  25  56 E8        29.72S
PITTSBURGH INT MOCLDY    43  26  51 NE7       29.68F
PITTSBURGH     MOCLDY    42  21  43 VRB6      29.67S
INDIANA*       CLOUDY    41  27  56 E9        29.73S
LATROBE        MOCLDY    39  37  93 CALM      29.70S
WASHINGTON CO* CLOUDY    43  36  75 NE3       29.68F
$$

PAZ004>006-010>012-017>019-024>028-033>037-041-042-045-046-049>053-261000-
CENTRAL PENNSYLVANIA

CITY           SKY/WX    TMP DP  RH WIND       PRES   REMARKS
BRADFORD       CLEAR     31  23  72 N5        29.72S
DUBOIS         CLEAR     37  24  59 E6        29.70S
CLEARFIELD     CLEAR     34  24  67 N5        29.72S
JOHNSTOWN      MOCLDY    36  24  62 NE8       29.66S
ALTOONA        MOCLDY    39  28  64 N3        29.69F
STATE COLLEGE  CLEAR     37  26  64 NE7       29.72S
WILLIAMSPORT   CLEAR     34  26  72 NW3       29.74R
SELINSGROVE    PTCLDY    35  29  78 CALM      29.74R
FT INDIANTOWN  MOCLDY    42  26  52 VRB2      29.70R
CAPITAL CITY   CLOUDY    41  33  73 W5        29.71R
HARRISBURG     CLOUDY    43  33  68 NW6       29.70S
YORK           CLOUDY    40  34  79 NW3       29.69S
$$

PAZ038>040-043-044-047-048-054-055-060>062-067>071-261000-
EASTERN PENNSYLVANIA

CITY           SKY/WX    TMP DP  RH WIND       PRES   REMARKS
SCRANTON       CLEAR     33  25  72 CALM      29.70R
MOUNT POCONO   PTCLDY    34  24  67 N7        29.66R
ALLENTOWN      PTCLDY    37  27  67 CALM      29.69S
QUAKERTOWN*    SUNNY     41  28  60 N3        29.68S
READING        PTCLDY    40  28  62 NW5       29.69R
LANCASTER      MOCLDY    39  30  70 W5        29.69R
COATESVILLE    PTSUNNY   45  28  53 N3        29.67S
POTTSTOWN      PTCLDY    43  27  53 N6        29.68S
BLUE BELL      PTCLDY    41  32  70 CALM      29.66S
DOYLESTOWN     CLEAR     40  27  59 N7        29.67R
WILLOW GROVE   NOT AVBL
NORTH PHILA    PTCLDY    46  26  45 N10       29.67F
PHILADELPHIA   MOCLDY    48  29  47 N7        29.67R
$$


USA.gov is the U.S. government's official web portal to all federal, state and local government web resources and services.